This demonstration page uses our WeatherBlox Daily Observations layout. Learn more.

Left ArrowRight Arrow

38.83388, -104.82136

Hourly Observations for January 15, 2015

Temp ( °F °C ) Dew Point ( °F °C ) Humidity (%) Winds ( mph kmh ) Pressure ( in mb ) Visibility ( mi km ) Precip ( " mm )
12:56 am 00:56 Clear 39 3.7 11 -11.8 32 32 NW 15 24 30.23 1024 10 16 N/A
1:56 am 01:56 Clear 39 4 10 -12.5 29 29 NW 16 26 30.25 1025 10 16 N/A
2:56 am 02:56 Clear 39 3.7 9 -12.9 29 29 NW 15 24 30.29 1026 10 16 N/A
3:56 am 03:56 Clear 35 1.9 10 -12.3 34 34 NW 8 13 30.32 1027 10 16 N/A
4:56 am 04:56 Clear 34 1.3 9 -12.7 35 35 NW 5 7 30.32 1027 10 16 N/A
5:56 am 05:56 Clear 36 2 10 -12.2 34 34 SW 6 9 30.29 1026 10 16 N/A
6:56 am 06:56 Clear 33 0.3 10 -12.5 38 38 WSW 3 6 30.32 1027 10 16 N/A
7:56 am 07:56 Sunny 35 1.7 11 -11.4 37 37 NW 2 4 30.32 1027 10 16 N/A
8:56 am 08:56 Sunny 36 2.1 14 -10.2 40 40 VRB 1 2 30.36 1028 10 16 N/A
9:56 am 09:56 Sunny 37 2.6 17 -8.1 46 46 SE 6 9 30.40 1029 10 16 N/A
10:56 am 10:56 Sunny 38 3.1 24 -4.7 57 57 SE 10 17 30.30 1026 10 16 N/A
11:56 am 11:56 Sunny 40 4.2 22 -5.5 50 50 SE 8 13 30.27 1025 10 16 N/A
12:56 pm 12:56 Sunny 41 5 22 -5.7 46 46 ESE 6 9 30.29 1026 10 16 N/A
1:56 pm 13:56 Sunny 42 5.7 21 -6 43 43 SSE 9 15 30.27 1025 10 16 N/A
2:56 pm 14:56 Sunny 41 5.2 23 -5.1 48 48 VRB 6 9 30.27 1025 10 16 N/A
3:56 pm 15:56 Sunny 39 4.1 21 -6.2 47 47 S 7 11 30.29 1026 10 16 N/A
4:56 pm 16:56 Sunny 38 3.4 20 -6.7 48 48 SSW 6 9 30.30 1026 10 16 N/A
5:56 pm 17:56 Clear 37 2.8 18 -7.7 46 46 SSW 6 9 30.30 1026 10 16 N/A
6:56 pm 18:56 Clear 35 1.9 17 -8.6 46 46 SSE 6 9 30.31 1026 10 16 N/A
7:56 pm 19:56 Clear 32 0.2 18 -8 54 54 NW 5 7 30.29 1026 10 16 N/A
8:56 pm 20:56 Clear 33 0.5 19 -7.5 55 55 NNW 12 19 30.26 1025 10 16 N/A
9:56 pm 21:56 Clear 37 2.9 14 -10.2 38 38 SW 1 2 30.24 1024 10 16 N/A
10:56 pm 22:56 Clear 40 4.4 11 -11.6 30 30 W 3 6 30.21 1023 10 16 N/A
11:56 pm 23:56 Clear 40 4.6 11 -11.9 29 29 W 3 6 30.16 1021 10 16 N/A

Powered by AerisWeather